Custom file does not exist C:\wdisplay\webfiles\testtags.txt


Thunder radar blitzortung!


Rain radar rain snow radar


Visit our other weather sites:

Template documentation
and downloads

And another site



Rain From: 19-10-2021 18:00 Until: 20-10-2021 21:00 warning for: Rain Level: Yellow info button
dansk:
Kategori 1 varsel: DMI forventer kraftig regn mellem 30 og 50 mm i varslingsperioden.

Vær opmærksom på, at vand kan samles i lavtliggende områder f.eks. kældre, vejbaner og viadukter. Luk vinduer og døre. Tilpas kørselshastigheden til sigtbarhedsforholdene.

english:
Category 1: Continuous rain with 30 to 50 mm.

Heavy rainfall. Risk of flash flood, flooding of low-lying areas, flooding of basements, water on roads and viaducts (aquaplaning), and reduced visibility. 

15 day weatherforecast 0.000N 0.000E

  • Overview
  • Hour-by-hour
  • 15 day forecast
  • Extras
  • Compare
  • Maps
  • Daily maps
  • More »
  • Info
  • Statistics
  • Direct links
    Temperature 6h Precip Wind  
 05:24     15:01    Daylength: 9:37 Tomorrow
00:00
 
5
06:00
5.0 mm
6
12:00
10°
8.6 mm
5
18:00
12°
18.7 mm
5
 05:26     14:58    Daylength: 9:32 Thursday 21 Oct
00:00
10°
7.1 mm
6
06:00
 
5
12:00
10°
 
4
18:00
9.7 mm
3
 05:29     14:55    Daylength: 9:26 Friday 22 Oct
00:00
42.9 mm
6
06:00
49.0 mm
6
12:00
 
6
18:00
 
3
Locationinfo
Region:
Latitude: 60.4202°N
Longitude: 23.2372°E
0 masl
Temperature/Precipitation /Pressure Thunder/Dewpoint
    Temperature Pressure 1h Precip Dewpoint Wind UV Cloudcover  
 05:24     15:01    Daylength: 9:37 Tomorrow
00:00
Feels: 1.3°
1008.1 hPa
48%
3.7°
5
Gust: 10.3 m/s
86%
01:00
Feels: 1.2°
1006.1 hPa
82%
4.0°
6
Gust: 10.9 m/s
86%
02:00
Feels: 0.9°
1003.8 hPa
82%
3.8°
6
Gust: 11.3 m/s
86%
03:00
Feels: 0.9°
1002.1 hPa 0.9 mm
82%
3.9°
6
Gust: 11.5 m/s
86%
04:00
Feels: 1.0°
1000.0 hPa 1.2 mm
82%
4.3°
6
Gust: 12 m/s
86%
05:00
Feels: 1.1°
998.0 hPa 1.6 mm
82%
4.5°
6
Gust: 12.1 m/s
86%
06:00
Feels: 1.5°
996.0 hPa 1.3 mm
82%
5.2°
6
Gust: 12.3 m/s
86%
07:00
Feels: 2.1°
994.4 hPa 1.6 mm
82%
5.7°
6
Gust: 12.3 m/s
86%
08:00
Feels: 3.1°
992.8 hPa
82%
6.4°
5
Gust: 11.5 m/s
86%
09:00
Feels: 4.8°
991.0 hPa
82%
7.7°
5
Gust: 11 m/s
86%
10:00
Feels: 6.1°
989.1 hPa 2.1 mm
82%
8.9°
5
Gust: 10.6 m/s
86%
11:00
Feels: 6.8°
987.7 hPa 2.5 mm
82%
9.5°
5
Gust: 11.2 m/s
86%
12:00
10°
986.3 hPa 2.3 mm
82%
10.0°
5
Gust: 11.2 m/s
86%
13:00
11°
984.8 hPa 3.0 mm
82%
10.9°
4
Gust: 9.6 m/s
86%
14:00
11°
983.4 hPa 3.6 mm
82%
11.1°
4
Gust: 9.1 m/s
86%
15:00
12°
982.4 hPa 4.5 mm
82%
11.3°
5
Gust: 8.8 m/s
86%
16:00
12°
981.5 hPa 3.1 mm
82%
11.6°
5
Gust: 8 m/s
86%
17:00
12°
980.6 hPa 2.4 mm
82%
11.6°
5
Gust: 7.7 m/s
86%
18:00
12°
980.1 hPa 2.0 mm
82%
11.4°
5
Gust: 7.6 m/s
86%
19:00
12°
979.6 hPa 2.1 mm
82%
11.4°
5
Gust: 7.5 m/s
86%
20:00
12°
979.5 hPa 2.1 mm
82%
11.5°
6
Gust: 6.7 m/s
86%
21:00
12°
979.6 hPa
77%
10.9°
6
Gust: 7.7 m/s
86%
22:00
11°
979.6 hPa 2.8 mm
82%
10.0°
6
Gust: 8.7 m/s
86%
23:00
11°
979.7 hPa
76%
9.5°
7
Gust: 8.6 m/s
63%
 05:26     14:58    Daylength: 9:32 Thursday 21 Oct
00:00
10°
979.6 hPa
19%
8.2°
6
Gust: 8.5 m/s
62%
01:00
10°
Feels: 7.0°
979.7 hPa
30%
7.9°
6
Gust: 7.9 m/s
70%
02:00
10°
Feels: 6.6°
979.8 hPa
66%
7.2°
6
Gust: 8.2 m/s
62%
03:00
Feels: 6.5°
980.1 hPa
24%
6.6°
6
Gust: 8.3 m/s
58%
04:00
Feels: 6.3°
980.1 hPa
25%
6.3°
6
Gust: 8 m/s
53%
05:00
Feels: 6.1°
980.1 hPa
60%
6.2°
6
Gust: 7.6 m/s
64%
06:00
Feels: 6.1°
980.2 hPa
66%
6.7°
5
Gust: 7 m/s
59%
07:00
Feels: 6.5°
980.3 hPa
67%
6.5°
6
Gust: 7 m/s
54%
08:00
10°
Feels: 7.2°
980.4 hPa
16%
6.2°
6
Gust: 7.7 m/s
29%
09:00
10°
980.4 hPa
14%
7.0°
6
Gust: 7.8 m/s
30%
10:00
11°
980.3 hPa
14%
6.6°
5
Gust: 8.2 m/s
50%
11:00
11°
980.2 hPa
14%
7.8°
5
Gust: 7.6 m/s
61%
12:00
10°
979.7 hPa
14%
8.7°
4
Gust: 7.2 m/s
37%
13:00
10°
978.8 hPa
14%
8.7°
4
Gust: 8.3 m/s
35%
14:00
10°
Feels: 7.9°
977.7 hPa
14%
8.5°
4
Gust: 8.6 m/s
72%
15:00
Feels: 7.5°
976.6 hPa
29%
7.5°
3
Gust: 7.5 m/s
86%
16:00
Feels: 7.2°
975.8 hPa
68%
7.5°
3
Gust: 6.1 m/s
86%
17:00
Feels: 7.1°
974.7 hPa 4.5 mm
81%
7.7°
3
Gust: 4.2 m/s
86%
18:00
Feels: 7.1°
973.4 hPa 5.2 mm
82%
7.7°
3
Gust: 9.2 m/s
86%
19:00
Feels: 7.2°
972.3 hPa 5.2 mm
82%
7.9°
3
Gust: 11.3 m/s
86%
20:00
Feels: 6.9°
971.5 hPa 4.8 mm
82%
8.0°
3
Gust: 11.1 m/s
86%
21:00
Feels: 6.7°
968.4 hPa 5.3 mm
100%
8.9°
5
Gust: 7.7 m/s
100%
22:00
Feels: 6.5°
968.9 hPa 8.8 mm
100%
8.5°
4
Gust: 7.2 m/s
100%
23:00
Feels: 5.7°
968.9 hPa 8.7 mm
100%
7.7°
6
Gust: 5.7 m/s
96%
 05:29     14:55    Daylength: 9:26 Friday 22 Oct
00:00
Feels: 4.7°
969.1 hPa 10.2 mm
100%
6.6°
6
Gust: 5.6 m/s
100%
01:00
Feels: 4.0°
970.2 hPa 6.7 mm
100%
5.9°
6
Gust: 6.5 m/s
94%
02:00
Feels: 3.8°
971.3 hPa 5.9 mm
100%
5.6°
5
Gust: 6.7 m/s
87%
03:00
Feels: 3.3°
972.1 hPa 9.1 mm
100%
5.4°
6
Gust: 6.4 m/s
86%
04:00
Feels: 3.2°
972.7 hPa 9.3 mm
100%
4.6°
5
Gust: 6.2 m/s
89%
05:00
Feels: 3.0°
973.3 hPa 9.0 mm
100%
4.3°
5
Gust: 5.7 m/s
87%
06:00
Feels: 2.3°
973.9 hPa 9.0 mm
100%
4.0°
6
Gust: 5.5 m/s
86%
07:00
Feels: 2.2°
976.0 hPa
97%
2.6°
6
Gust: 9 m/s
90%
08:00
Feels: 2.1°
977.2 hPa
80%
2.3°
6
Gust: 12.8 m/s
93%
09:00
Feels: 2.4°
978.7 hPa
37%
2.2°
6
Gust: 12.6 m/s
95%
10:00
Feels: 2.7°
980.1 hPa
79%
2.1°
6
Gust: 12.5 m/s
93%
11:00
Feels: 3.0°
981.3 hPa
27%
2.1°
6
Gust: 12.9 m/s
86%
12:00
Feels: 3.3°
982.4 hPa
25%
1.9°
6
Gust: 12.1 m/s
84%
13:00
Feels: 3.1°
983.4 hPa
30%
1.8°
5
Gust: 12.1 m/s
76%
14:00
Feels: 2.7°
984.3 hPa
24%
1.6°
5
Gust: 11 m/s
67%
15:00
Feels: 2.2°
985.5 hPa
23%
1.8°
4
Gust: 8.9 m/s
72%
16:00
Feels: 1.8°
986.4 hPa
80%
1.5°
4
Gust: 10 m/s
68%
17:00
Feels: 1.6°
987.4 hPa
85%
1.6°
4
Gust: 10.3 m/s
70%
18:00
Feels: 1.7°
988.0 hPa
88%
1.4°
3
Gust: 10.6 m/s
74%
19:00
Feels: 1.6°
988.9 hPa
37%
1.0°
3
Gust: 10.1 m/s
66%
20:00
Feels: 1.1°
989.7 hPa
29%
1.1°
3
Gust: 9.9 m/s
62%
21:00
Feels: 1.3°
990.5 hPa
21%
0.9°
2
Gust: 9.1 m/s
83%
22:00
Feels: 1.5°
991.2 hPa
21%
1.4°
2
Gust: 7.4 m/s
90%
23:00
Feels: 1.0°
992.0 hPa
21%
1.7°
2
Gust: 6.4 m/s
93%
Temperature/Precipitation /Pressure Thunder/Dewpoint
    Temperature Pressure Precip Dewpoint Wind Cloudcover  
 05:24     15:01    Daylength: 9:37 Tomorrow
00:00
Feels: 1.3°
1008.1 hPa   3.7°
5
86%
03:00
Feels: 0.9°
1002.1 hPa 0.9 mm 3.9°
6
86%
06:00
Feels: 1.5°
996.0 hPa 4.1 mm 5.2°
6
86%
09:00
Feels: 4.8°
991.0 hPa 1.6 mm 7.7°
5
86%
12:00
10°
986.3 hPa 6.9 mm 10.0°
5
86%
15:00
12°
982.4 hPa 11.1 mm 11.3°
5
86%
18:00
12°
980.1 hPa 7.6 mm 11.4°
5
86%
21:00
12°
979.6 hPa 4.3 mm 10.9°
6
86%
 05:26     14:58    Daylength: 9:32 Thursday 21 Oct
00:00
10°
979.6 hPa 2.8 mm 8.2°
6
62%
03:00
Feels: 6.5°
980.1 hPa   6.6°
6
58%
06:00
Feels: 6.1°
980.2 hPa   6.7°
5
59%
09:00
10°
980.4 hPa   7.0°
6
30%
12:00
10°
979.7 hPa   8.7°
4
37%
15:00
Feels: 7.5°
976.6 hPa   7.5°
3
86%
18:00
Feels: 7.1°
973.4 hPa 9.7 mm 7.7°
3
86%
21:00
Feels: 6.7°
968.4 hPa 15.3 mm 8.9°
5
100%
 05:29     14:55    Daylength: 9:26 Friday 22 Oct
00:00
Feels: 4.7°
969.1 hPa 27.6 mm 6.6°
6
100%
03:00
Feels: 3.3°
972.1 hPa 21.7 mm 5.4°
6
86%
06:00
Feels: 2.3°
973.9 hPa 27.3 mm 4.0°
6
86%
09:00
Feels: 2.4°
978.7 hPa   2.2°
6
95%
12:00
Feels: 3.3°
982.4 hPa   1.9°
6
84%
15:00
Feels: 2.2°
985.5 hPa   1.8°
4
72%
18:00
Feels: 1.7°
988.0 hPa   1.4°
3
74%
21:00
Feels: 1.3°
990.5 hPa   0.9°
2
83%
 05:31     14:52    Daylength: 9:21 Saturday 23 Oct
00:00
Feels: 1.2°
992.8 hPa   1.9°
2
97%
03:00
Feels: -0.2°
996.6 hPa 38.7 mm 1.2°
4
1%
06:00
Feels: -1.2°
1000.0 hPa 38.7 mm 0.8°
4
1%
09:00
Feels: -1.2°
1004.6 hPa 38.7 mm 0.1°
4
1%
12:00
Feels: -2.0°
1009.0 hPa 38.7 mm -1.4°
4
1%
15:00
Feels: -2.5°
1013.1 hPa 38.7 mm -1.4°
4
1%
18:00
Feels: -3.6°
1016.5 hPa 38.7 mm -1.8°
4
1% warningclass
21:00
-0°
Feels: -3.8°
1019.5 hPa 38.7 mm -1.8°
3
0% warningclass
 05:34     14:50    Daylength: 9:16 Sunday 24 Oct
00:00
Feels: -3.1°
1022.2 hPa 38.7 mm -2.9°
4
1% warningclass
03:00
-0°
Feels: -3.3°
1024.4 hPa 38.7 mm -2.2°
2
1% warningclass
06:00
-1°
Feels: -3.5°
1026.4 hPa 38.7 mm -2.2°
2
0% warningclass
09:00
Feels: 0.1°
1028.1 hPa 38.7 mm -2.2°
1
1%
12:00
1029.1 hPa 38.7 mm -2.3°
1
1%
15:00
Feels: 0.5°
1029.4 hPa 38.7 mm -1.6°
1
1%
18:00
Feels: -1.2°
1029.4 hPa 38.7 mm -1.3°
2
1% warningclass
21:00
Feels: -1.5°
1029.3 hPa 38.7 mm -1.4°
3
1%
 05:36     14:47    Daylength: 9:11 Monday 25 Oct
00:00
Feels: 1.1°
1028.2 hPa 38.7 mm 1.9°
3
1%
03:00
Feels: 2.2°
1027.4 hPa 38.7 mm 3.1°
3
1%
06:00
Feels: 3.3°
1026.9 hPa 38.7 mm 4.4°
4
1%
09:00
Feels: 5.2°
1027.0 hPa 38.7 mm 5.1°
5
1%
12:00
Feels: 5.8°
1026.4 hPa 38.8 mm 5.1°
5
1%
15:00
Feels: 4.1°
1025.5 hPa 38.9 mm 5.0°
5
1%
18:00
Feels: 4.5°
1024.5 hPa 38.9 mm 4.6°
5
1%
21:00
Feels: 3.8°
1023.9 hPa 38.9 mm 5.0°
6
0%
 05:39     14:44    Daylength: 9:05 Tuesday 26 Oct
00:00
Feels: 4.3°
1022.1 hPa 39.0 mm 3.6°
6
1%
03:00
Feels: 4.7°
1019.7 hPa 39.0 mm 4.0°
5
1%
06:00
Feels: 4.4°
1017.7 hPa 39.1 mm 5.3°
5
1%
09:00
Feels: 5.4°
1015.9 hPa 39.4 mm 5.6°
6
1%
12:00
Feels: 6.1°
1014.1 hPa 39.6 mm 6.1°
6
1%
15:00
Feels: 5.5°
1012.2 hPa 39.7 mm 6.9°
5
1%
18:00
Feels: 6.0°
1010.8 hPa 39.8 mm 7.7°
5
1%
21:00
Feels: 6.2°
1009.0 hPa   7.1°
5
1%
 05:42     14:41    Daylength: 8:59 Wednesday 27 Oct
00:00
Feels: 6.1°
1005.2 hPa 81.5 mm 8.1°
6
1%
06:00
10°
999.2 hPa 96.7 mm 9.2°
7
1%
12:00
10°
998.1 hPa 105.2 mm 9.9°
5
1%
18:00
10°
995.3 hPa 106.6 mm 8.7°
5
1%
 05:44     14:39    Daylength: 8:55 Thursday 28 Oct
00:00
10°
Feels: 6.8°
993.2 hPa 107.3 mm 7.5°
6
1%
06:00
Feels: 6.1°
989.7 hPa 108.4 mm 6.7°
4
1%
12:00
Feels: 6.1°
992.2 hPa 109.0 mm 5.4°
4
1%
18:00
Feels: 4.0°
997.3 hPa 109.0 mm 4.3°
2
1%
 05:47     14:36    Daylength: 8:49 Friday 29 Oct
00:00
Feels: 4.2°
1001.3 hPa 109.0 mm 2.4°
1
1%
06:00
Feels: 4.4°
1001.8 hPa 109.0 mm 6.0°
3
1%
12:00
11°
1001.0 hPa 110.3 mm 10.5°
4
1%
18:00
Feels: 4.5°
999.7 hPa 0.7 mm 4.8°
4
75%
 05:50     14:33    Daylength: 8:43 Saturday 30 Oct
00:00
Feels: 4.0°
1000.4 hPa 0.7 mm 4.5°
3
72%
06:00
Feels: 3.8°
1001.6 hPa 0.4 mm 3.8°
2
67%
12:00
Feels: 5.2°
1003.2 hPa 0.6 mm 4.2°
3
75%
18:00
Feels: 4.0°
1003.7 hPa 0.6 mm 4.0°
2
78%
 05:52     14:30    Daylength: 8:38 Sunday 31 Oct
00:00
Feels: 3.9°
1004.0 hPa 0.7 mm 3.8°
2
79%
06:00
Feels: 3.7°
1005.0 hPa 0.8 mm 3.5°
2
82%
12:00
Feels: 5.5°
1006.5 hPa 0.6 mm 3.9°
2
79%
18:00
Feels: 4.6°
1006.7 hPa 1.0 mm 3.8°
1
78%
 05:55     14:28    Daylength: 8:33 Monday 01 Nov
00:00
Feels: 4.1°
1006.2 hPa   3.5°
1
80%
06:00
Feels: 3.8°
1006.3 hPa 0.7 mm 3.3°
1
78%
12:00
Feels: 5.6°
1006.5 hPa 0.8 mm 3.9°
1
83%
18:00
Feels: 4.1°
1006.7 hPa 0.8 mm 3.4°
1
78%
 05:57     14:25    Daylength: 8:28 Tuesday 02 Nov
00:00
Feels: 3.8°
1007.1 hPa 0.5 mm 2.9°
1
76%
06:00
Feels: 3.2°
1006.6 hPa 0.7 mm 2.8°
1
76%
12:00
Feels: 5.0°
1006.3 hPa 0.6 mm 3.5°
2
76%
18:00
Feels: 4.1°
1006.8 hPa 0.9 mm 3.0°
1
76%
 06:00     14:23    Daylength: 8:23 Wednesday 03 Nov
00:00
Feels: 4.2°
1007.5 hPa 0.7 mm 2.7°
1
76%
06:00
1007.7 hPa 0.4 mm 2.8°
1
83%
12:00
Feels: 5.1°
1007.8 hPa 0.7 mm 2.9°
1
89%
18:00
Feels: 3.7°
1007.6 hPa 0.9 mm 2.7°
1
86%
  CAPE Lifted Index Hail Supercell Tornado SRH 3km CL BTM PRES CL TOP PRES Swiss DWD icon SMHI TS
 05:24     15:01    Daylength: 9:37 Tomorrow
00:00 0 J/kg 10.5 K 0 % 0 % 0 % 0 m²/s² 0 0 11.13 61
01:00 0 J/kg 10.2 K 0 % 0 % 0 % 0 m²/s² 0 0 11.07 3
02:00 0 J/kg 9.7 K 0 % 0 % 0 % 0 m²/s² 0 0 10.15 61
03:00 0 J/kg 8.7 K 0 % 0 % 0 % 0 m²/s² 0 0 8.88 61
04:00 0 J/kg 7.8 K 0 % 0 % 0 % 0 m²/s² 0 0 7.92 61
05:00 0 J/kg 7.5 K 0 % 0 % 0 % 0 m²/s² 0 0 7.68 55
06:00 0 J/kg 5.8 K 0 % 0 % 0 % 0 m²/s² 0 0 5.92 53
07:00 0 J/kg 5.1 K 0 % 0 % 0 % 0 m²/s² 0 0 5.22 53
08:00 0 J/kg 3.6 K 0 % 0 % 0 % 0 m²/s² 0 0 3.63 61
09:00 0 J/kg 2.6 K 0 % 0 % 0 % 0 m²/s² 0 0 3.59 61
10:00 1 J/kg 2.7 K 0 % 0 % 0 % 0 m²/s² 0 0 3.48 61
11:00 1 J/kg 3.1 K 0 % 0 % 0 % 0 m²/s² 0 0 3.67 61
12:00 1 J/kg 2.9 K 0 % 0 % 0 % 0 m²/s² 0 0 3.2 61
13:00 1 J/kg 2.8 K 0 % 0 % 0 % 0 m²/s² 0 0 3.4 61
14:00 1 J/kg 2.4 K 0 % 0 % 0 % 0 m²/s² 0 0 2.88 63
15:00 1 J/kg 3.7 K 0 % 0 % 0 % 0 m²/s² 0 0 4.54 63
16:00 0 J/kg 2.8 K 0 % 0 % 0 % 0 m²/s² 0 0 3.31 61
17:00 0 J/kg 2.0 K 0 % 0 % 0 % 0 m²/s² 0 0 2.3 61
18:00 24 J/kg 1.7 K 0 % 0 % 0 % 0 m²/s² 0 0 1.91 80
19:00 78 J/kg 1.3 K 0 % 0 % 0 % 0 m²/s² 0 0 1.51 80
20:00 131 J/kg 0.6 K 0 % 0 % 0 % 0 m²/s² 0 0 0.78 3
21:00 81 J/kg 0.8 K 0 % 0 % 0 % 0 m²/s² 0 0 1.01 3
22:00 17 J/kg 1.1 K 0 % 0 % 0 % 0 m²/s² 0 0 2.24 3
23:00 33 J/kg 0.5 K 0 % 0 % 0 % 0 m²/s² 0 0 3.92 3
 05:26     14:58    Daylength: 9:32 Thursday 21 Oct
00:00 3 J/kg 1.3 K 0 % 0 % 0 % 0 m²/s² 0 0 4.21 2
01:00 2 J/kg 1.7 K 0 % 0 % 0 % 0 m²/s² 0 0 8.15 3
02:00 4 J/kg 3.7 K 0 % 0 % 0 % 0 m²/s² 0 0 14.65 3
03:00 4 J/kg 4.7 K 0 % 0 % 0 % 0 m²/s² 0 0 15.11 2
04:00 4 J/kg 4.9 K 0 % 0 % 0 % 0 m²/s² 0 0 13.54 3
05:00 1 J/kg 4.9 K 0 % 0 % 0 % 0 m²/s² 0 0 10.84 3
06:00 1 J/kg 4.8 K 0 % 0 % 0 % 0 m²/s² 0 0 11.7 3
07:00 1 J/kg 5.0 K 0 % 0 % 0 % 0 m²/s² 0 0 8.06 3
08:00 10 J/kg 4.1 K 0 % 0 % 0 % 0 m²/s² 0 0 6.02 3
09:00 6 J/kg 1.9 K 0 % 0 % 0 % 0 m²/s² 0 0 2.98 2
10:00 11 J/kg 2.6 K 0 % 0 % 0 % 0 m²/s² 0 0 5.81 3
11:00 3 J/kg 2.3 K 0 % 0 % 0 % 0 m²/s² 0 0 7.52 2
12:00 0 J/kg 1.6 K 0 % 0 % 0 % 0 m²/s² 0 0 7.69 2
13:00 88 J/kg 1.1 K 0 % 0 % 0 % 0 m²/s² 0 0 7.22 3
14:00 85 J/kg 1.3 K 0 % 0 % 0 % 0 m²/s² 0 0 8.71 3
15:00 69 J/kg 2.2 K 0 % 0 % 0 % 0 m²/s² 0 0 5.62 3
16:00 84 J/kg 2.1 K 0 % 0 % 0 % 0 m²/s² 0 0 2.34 3
17:00 103 J/kg 1.7 K 0 % 0 % 0 % 0 m²/s² 0 0 1.94 3
18:00 133 J/kg 1.7 K 0 % 0 % 0 % 0 m²/s² 0 0 1.91 61
19:00 161 J/kg 1.9 K 0 % 0 % 0 % 0 m²/s² 0 0 2.14 61
20:00 129 J/kg 1.9 K 0 % 0 % 0 % 0 m²/s² 0 0 2.14 61
21:00 83 J/kg 1.9 K 0 % 0 % 0 % 0 m²/s² 0 0 2.26 61
22:00 154 J/kg 1.3 K 0 % 0 % 0 % 0 m²/s² 0 0 1.66 80
23:00 97 J/kg 2.2 K 0 % 0 % 0 % 0 m²/s² 0 0 2.65 80
 05:29     14:55    Daylength: 9:26 Friday 22 Oct
00:00 6 J/kg 3.5 K 0 % 0 % 0 % 0 m²/s² 0 0 4.19 63
01:00 16 J/kg 4.0 K 0 % 0 % 0 % 0 m²/s² 0 0 4.57 63
02:00 30 J/kg 3.3 K 0 % 0 % 0 % 0 m²/s² 0 0 4.32 61
03:00 29 J/kg 2.6 K 0 % 0 % 0 % 0 m²/s² 0 0 5.87 61
04:00 3 J/kg 3.3 K 0 % 0 % 0 % 0 m²/s² 0 0 7.02 61
05:00 6 J/kg 3.1 K 0 % 0 % 0 % 0 m²/s² 0 0 7.45 61
06:00 14 J/kg 3.8 K 0 % 0 % 0 % 0 m²/s² 0 0 8.6 61
07:00 0 J/kg 5.5 K 0 % 0 % 0 % 0 m²/s² 0 0 10.99 3
08:00 0 J/kg 5.3 K 0 % 0 % 0 % 0 m²/s² 0 0 10.76 3
09:00 2 J/kg 5.0 K 0 % 0 % 0 % 0 m²/s² 0 0 10.16 3
10:00 2 J/kg 5.1 K 0 % 0 % 0 % 0 m²/s² 0 0 9.84 3
11:00 2 J/kg 5.1 K 0 % 0 % 0 % 0 m²/s² 0 0 9.72 3
12:00 5 J/kg 5.3 K 0 % 0 % 0 % 0 m²/s² 0 0 8.87 3
13:00 4 J/kg 5.6 K 0 % 0 % 0 % 0 m²/s² 0 0 8.48 3
14:00 4 J/kg 5.9 K 0 % 0 % 0 % 0 m²/s² 0 0 9.17 3
15:00 0 J/kg 6.3 K 0 % 0 % 0 % 0 m²/s² 0 0 9.93 3
16:00 0 J/kg 6.7 K 0 % 0 % 0 % 0 m²/s² 0 0 10.33 3
17:00 0 J/kg 6.7 K 0 % 0 % 0 % 0 m²/s² 0 0 10.54 3
18:00 0 J/kg 6.2 K 0 % 0 % 0 % 0 m²/s² 0 0 10.55 3
19:00 0 J/kg 6.3 K 0 % 0 % 0 % 0 m²/s² 0 0 11.13 3
20:00 0 J/kg 6.3 K 0 % 0 % 0 % 0 m²/s² 0 0 10.89 3
21:00 0 J/kg 6.2 K 0 % 0 % 0 % 0 m²/s² 0 0 10.7 3
22:00 0 J/kg 6.4 K 0 % 0 % 0 % 0 m²/s² 0 0 7.48 3
23:00 0 J/kg 6.8 K 0 % 0 % 0 % 0 m²/s² 0 0 7.25 3
Temperature Pressure Wind Precipitation
  EWN Forecast EWN WRFDA DWD ICON FMI HIRLAM MET Norway GFS
 05:24     15:01    Daylength: 9:37 Tomorrow
00:00 5.1° 1008.1 hPa 5.3 m/s 0.0 mm 5.8° 1006.3 hPa 6.4 m/s 2.3 mm 5.2° 1008.3 hPa 5.2 m/s -0.5 mm 5.3° 1007.7 hPa 5.0 m/s 0.0 mm 5.5° 1007.6 hPa 5.5 m/s
03:00 5.0° 1002.1 hPa 5.9 m/s 0.9 mm 5.9° 999.8 hPa 7.3 m/s 8.4 mm 4.6° 1002.4 hPa 5.7 m/s 0.8 mm 5.1° 1001.4 hPa 5.6 m/s 0.0 mm 5.7° 1001.7 hPa 6.4 m/s
06:00 5.5° 996.0 hPa 6.2 m/s 4.1 mm 6.7° 993.5 hPa 7.9 m/s 13.2 mm 5.5° 996.3 hPa 5.2 m/s 1.3 mm 5.9° 995.0 hPa 6.1 m/s 0.0 mm 6.2° 995.0 hPa 6.4 m/s
09:00 7.8° 991.0 hPa 5.1 m/s 1.6 mm 8.6° 988.5 hPa 5.7 m/s 21.8 mm 7.8° 992.1 hPa 4.6 m/s 0.5 mm 8.6° 990.0 hPa 4.9 m/s 0.0 mm 8.7° 989.5 hPa 6.2 m/s
12:00 10.0° 986.3 hPa 4.6 m/s 6.9 mm 11.0° 985.2 hPa 4.8 m/s 25.0 mm 10.0° 986.9 hPa 4.7 m/s 1.9 mm 10.5° 984.8 hPa 3.9 m/s 0.0 mm 11.5° 985.4 hPa 4.8 m/s
15:00 11.6° 982.4 hPa 4.9 m/s 11.1 mm 12.1° 982.0 hPa 4.7 m/s 26.1 mm 11.5° 982.4 hPa 3.9 m/s 9.4 mm 12.9° 981.8 hPa 5.0 m/s 0.0 mm 11.9° 982.6 hPa 5.1 m/s
18:00 12.0° 980.1 hPa 5.2 m/s 7.6 mm 12.2° 979.4 hPa 4.4 m/s 27.0 mm 12.2° 980.0 hPa 5.6 m/s 2.4 mm 12.7° 979.9 hPa 4.6 m/s 0.0 mm 11.7° 980.9 hPa 5.0 m/s
21:00 11.8° 979.6 hPa 6.2 m/s 4.3 mm 12.3° 979.0 hPa 7.9 m/s 31.1 mm 11.9° 979.6 hPa 6.1 m/s 0.4 mm 12.6° 979.0 hPa 5.5 m/s 0.0 mm 11.5° 980.3 hPa 5.2 m/s
 05:26     14:58    Daylength: 9:32 Thursday 21 Oct
00:00 10.2° 979.6 hPa 6.3 m/s 2.8 mm 10.4° 978.9 hPa 7.2 m/s 36.3 mm 10.1° 979.7 hPa 6.3 m/s 0.2 mm 10.7° 978.8 hPa 4.6 m/s 0.0 mm 11.1° 981.4 hPa 5.9 m/s
03:00 9.4° 980.1 hPa 6.0 m/s 0.0 mm 8.8° 979.7 hPa 6.3 m/s 36.5 mm 8.9° 980.4 hPa 5.9 m/s 0.0 mm 10.5° 978.2 hPa 5.0 m/s 0.0 mm 10.1° 982.0 hPa 5.8 m/s
06:00 8.9° 980.2 hPa 5.5 m/s 0.0 mm 8.3° 980.2 hPa 4.9 m/s 36.6 mm 8.8° 980.6 hPa 5.7 m/s 0.0 mm 10.0° 977.0 hPa 4.1 m/s 0.0 mm 8.8° 982.9 hPa 5.1 m/s
09:00 10.3° 980.4 hPa 5.6 m/s 0.0 mm 10.7° 979.4 hPa 5.1 m/s 36.7 mm 10.0° 981.0 hPa 5.8 m/s 0.0 mm 10.6° 976.4 hPa 3.8 m/s 0.0 mm 10.7° 983.5 hPa 4.5 m/s
12:00 10.4° 979.7 hPa 4.2 m/s 0.0 mm 10.7° 976.5 hPa 3.7 m/s 37.0 mm 10.8° 980.8 hPa 5.2 m/s 0.0 mm 9.9° 975.9 hPa 3.6 m/s 0.0 mm 11.4° 981.2 hPa 3.0 m/s
15:00 9.3° 976.6 hPa 3.3 m/s 0.0 mm 10.8° 973.1 hPa 4.4 m/s 37.7 mm 9.2° 977.8 hPa 2.3 m/s 0.0 mm 8.5° 976.0 hPa 4.9 m/s 0.0 mm 10.4° 978.3 hPa 3.1 m/s
18:00 8.8° 973.4 hPa 3.1 m/s 9.7 mm 10.2° 968.7 hPa 1.3 m/s 41.5 mm 9.0° 973.9 hPa 1.7 m/s 1.1 mm 5.5° 976.9 hPa 2.9 m/s 0.0 mm 10.0° 974.2 hPa 2.8 m/s
21:00 9.3° 968.4 hPa 5.2 m/s 15.3 mm 9.4° 967.2 hPa 4.8 m/s 61.9 mm 8.7° 970.4 hPa 3.6 m/s 4.2 mm 9.4° 972.6 hPa 3.8 m/s
 05:29     14:55    Daylength: 9:26 Friday 22 Oct
00:00 8.0° 969.1 hPa 5.8 m/s 27.6 mm 8.7° 968.0 hPa 6.5 m/s 75.8 mm 8.0° 968.8 hPa 5.3 m/s 3.5 mm 9.0° 971.2 hPa 3.0 m/s
03:00 6.8° 972.1 hPa 5.6 m/s 21.7 mm 7.7° 969.2 hPa 5.9 m/s 76.9 mm 7.0° 972.5 hPa 4.7 m/s 5.8 mm 8.6° 970.4 hPa 3.2 m/s
06:00 6.0° 973.9 hPa 5.6 m/s 27.3 mm 6.2° 971.2 hPa 7.1 m/s 78.5 mm 6.6° 975.2 hPa 5.6 m/s 1.7 mm 5.4° 972.6 hPa 5.6 m/s
09:00 6.3° 978.7 hPa 6.4 m/s 0.0 mm 6.6° 974.7 hPa 6.5 m/s 79.0 mm 6.2° 979.7 hPa 6.4 m/s 0.0 mm 3.2° 975.6 hPa 6.9 m/s
12:00 6.8° 982.4 hPa 5.7 m/s 0.0 mm 7.0° 977.1 hPa 7.2 m/s 79.0 mm 6.7° 983.7 hPa 5.4 m/s 0.0 mm 3.9° 980.6 hPa 7.6 m/s
15:00 5.3° 985.5 hPa 4.0 m/s 0.0 mm 5.0° 979.4 hPa 4.2 m/s 79.0 mm 5.3° 987.0 hPa 4.0 m/s 0.0 mm 4.0° 984.9 hPa 6.4 m/s
18:00 4.5° 988.0 hPa 3.4 m/s 0.0 mm 4.3° 981.1 hPa 4.6 m/s 79.0 mm 4.6° 989.8 hPa 3.1 m/s 0.1 mm 3.8° 988.3 hPa 5.2 m/s
21:00 3.4° 990.5 hPa 2.2 m/s 0.0 mm 4.5° 983.2 hPa 3.3 m/s 79.0 mm 3.1° 992.4 hPa 1.9 m/s 0.0 mm 3.7° 990.9 hPa 4.5 m/s
 05:31     14:52    Daylength: 9:21 Saturday 23 Oct
00:00 3.1° 992.8 hPa 2.0 m/s 0.0 mm 4.7° 985.9 hPa 2.2 m/s 79.0 mm 2.7° 994.5 hPa 1.9 m/s 0.0 mm 3.5° 993.7 hPa 4.5 m/s
03:00 3.2° 996.6 hPa 3.8 m/s 38.7 mm 3.2° 996.6 hPa 3.8 m/s 38.7 mm
06:00 2.4° 1000.0 hPa 3.9 m/s 38.7 mm 2.4° 1000.0 hPa 3.9 m/s 38.7 mm
09:00 2.6° 1004.6 hPa 4.1 m/s 38.7 mm 2.6° 1004.6 hPa 4.1 m/s 38.7 mm
12:00 2.0° 1009.0 hPa 4.4 m/s 38.7 mm 2.0° 1009.0 hPa 4.4 m/s 38.7 mm
15:00 1.3° 1013.1 hPa 3.7 m/s 38.7 mm 1.3° 1013.1 hPa 3.7 m/s 38.7 mm
18:00 0.5° 1016.5 hPa 3.8 m/s 38.7 mm 0.5° 1016.5 hPa 3.8 m/s 38.7 mm
21:00 -0.1° 1019.5 hPa 3.1 m/s 38.7 mm -0.1° 1019.5 hPa 3.1 m/s 38.7 mm
 05:34     14:50    Daylength: 9:16 Sunday 24 Oct
00:00 0.7° 1022.2 hPa 3.6 m/s 38.7 mm 0.7° 1022.2 hPa 3.6 m/s 38.7 mm
03:00 -0.3° 1024.4 hPa 2.4 m/s 38.7 mm -0.3° 1024.4 hPa 2.4 m/s 38.7 mm
06:00 -1.1° 1026.4 hPa 1.8 m/s 38.7 mm -1.1° 1026.4 hPa 1.8 m/s 38.7 mm
09:00 1.6° 1028.1 hPa 1.4 m/s 38.7 mm 1.6° 1028.1 hPa 1.4 m/s 38.7 mm
12:00 2.6° 1029.1 hPa 0.8 m/s 38.7 mm 2.6° 1029.1 hPa 0.8 m/s 38.7 mm
15:00 1.3° 1029.4 hPa 1.1 m/s 38.7 mm 1.3° 1029.4 hPa 1.1 m/s 38.7 mm
18:00 0.9° 1029.4 hPa 1.9 m/s 38.7 mm 0.9° 1029.4 hPa 1.9 m/s 38.7 mm
21:00 1.3° 1029.3 hPa 2.5 m/s 38.7 mm 1.3° 1029.3 hPa 2.5 m/s 38.7 mm
 05:36     14:47    Daylength: 9:11 Monday 25 Oct
00:00 3.8° 1028.2 hPa 3.0 m/s 38.7 mm 3.8° 1028.3 hPa 3.0 m/s 38.7 mm
03:00 5.0° 1027.4 hPa 3.4 m/s 38.7 mm 5.0° 1027.4 hPa 3.4 m/s 38.7 mm
06:00 6.0° 1026.9 hPa 3.7 m/s 38.7 mm 6.0° 1026.9 hPa 3.7 m/s 38.7 mm
09:00 7.9° 1027.0 hPa 4.7 m/s 38.7 mm 7.9° 1027.0 hPa 4.7 m/s 38.7 mm
12:00 8.5° 1026.4 hPa 5.0 m/s 38.8 mm 8.5° 1026.4 hPa 5.0 m/s 38.8 mm
15:00 7.2° 1025.5 hPa 5.1 m/s 38.9 mm 7.2° 1025.5 hPa 5.1 m/s 38.9 mm
18:00 7.6° 1024.5 hPa 5.4 m/s 38.9 mm 7.6° 1024.5 hPa 5.4 m/s 38.9 mm
21:00 7.2° 1023.9 hPa 5.5 m/s 38.9 mm 7.2° 1023.9 hPa 5.5 m/s 38.9 mm
 05:39     14:44    Daylength: 9:05 Tuesday 26 Oct
00:00 7.6° 1022.1 hPa 5.6 m/s 39.0 mm 7.6° 1022.1 hPa 5.6 m/s 39.0 mm
03:00 7.7° 1019.7 hPa 5.0 m/s 39.0 mm 7.7° 1019.7 hPa 5.0 m/s 39.0 mm
06:00 7.6° 1017.7 hPa 5.5 m/s 39.1 mm 7.6° 1017.7 hPa 5.5 m/s 39.1 mm
09:00 8.5° 1015.9 hPa 5.7 m/s 39.4 mm 8.5° 1015.9 hPa 5.7 m/s 39.4 mm
12:00 9.0° 1014.1 hPa 5.6 m/s 39.6 mm 9.0° 1014.1 hPa 5.6 m/s 39.6 mm
15:00 8.3° 1012.2 hPa 5.0 m/s 39.7 mm 8.3° 1012.2 hPa 5.0 m/s 39.7 mm
18:00 8.6° 1010.8 hPa 4.8 m/s 39.8 mm 8.6° 1010.8 hPa 4.8 m/s 39.8 mm
21:00 8.8° 1009.0 hPa 4.8 m/s 39.8 mm 8.8° 1009.0 hPa 4.8 m/s 39.8 mm
 05:42     14:41    Daylength: 8:59 Wednesday 27 Oct
00:00 9.1° 1005.2 hPa 5.8 m/s 41.7 mm 9.1° 1005.2 hPa 5.8 m/s 41.7 mm
06:00 10.2° 999.2 hPa 6.9 m/s 50.1 mm 10.2° 999.2 hPa 6.9 m/s 50.1 mm
12:00 10.4° 998.1 hPa 4.9 m/s 52.8 mm 10.4° 998.1 hPa 4.9 m/s 52.8 mm
18:00 10.3° 995.3 hPa 5.0 m/s 53.5 mm 10.3° 995.3 hPa 5.0 m/s 53.5 mm
 05:44     14:39    Daylength: 8:55 Thursday 28 Oct
00:00 9.6° 993.2 hPa 5.7 m/s 53.7 mm 9.6° 993.2 hPa 5.7 m/s 53.7 mm
06:00 8.5° 989.7 hPa 4.1 m/s 54.4 mm 8.5° 989.7 hPa 4.1 m/s 54.4 mm
12:00 8.5° 992.2 hPa 4.1 m/s 54.5 mm 8.5° 992.2 hPa 4.1 m/s 54.5 mm
18:00 5.3° 997.3 hPa 1.8 m/s 54.5 mm 5.3° 997.3 hPa 1.8 m/s 54.5 mm
 05:47     14:36    Daylength: 8:49 Friday 29 Oct
00:00 4.2° 1001.3 hPa 0.7 m/s 54.5 mm 4.2° 1001.3 hPa 0.7 m/s 54.5 mm
06:00 6.7° 1001.8 hPa 3.2 m/s 54.5 mm 6.7° 1001.8 hPa 3.2 m/s 54.5 mm
12:00 10.8° 1001.0 hPa 4.2 m/s 55.6 mm 10.8° 1001.0 hPa 4.2 m/s 55.6 mm
18:00 7.0° 999.7 hPa 3.5 m/s 0.7 mm
 05:50     14:33    Daylength: 8:43 Saturday 30 Oct
00:00 6.0° 1000.4 hPa 2.7 m/s 0.7 mm
06:00 5.5° 1001.6 hPa 2.1 m/s 0.4 mm
12:00 7.1° 1003.2 hPa 2.7 m/s 0.6 mm
18:00 5.5° 1003.7 hPa 2.0 m/s 0.6 mm
 05:52     14:30    Daylength: 8:38 Sunday 31 Oct
00:00 5.2° 1004.0 hPa 1.7 m/s 0.7 mm
06:00 4.9° 1005.0 hPa 1.6 m/s 0.8 mm
12:00 6.6° 1006.5 hPa 1.8 m/s 0.6 mm
18:00 5.3° 1006.7 hPa 1.3 m/s 1.0 mm
 05:55     14:28    Daylength: 8:33 Monday 01 Nov
00:00 4.8° 1006.2 hPa 1.2 m/s 0.0 mm
06:00 4.6° 1006.3 hPa 1.3 m/s 0.7 mm
12:00 6.4° 1006.5 hPa 1.5 m/s 0.8 mm
18:00 5.0° 1006.7 hPa 1.3 m/s 0.8 mm
 05:57     14:25    Daylength: 8:28 Tuesday 02 Nov
00:00 4.4° 1007.1 hPa 1.2 m/s 0.5 mm
06:00 4.4° 1006.6 hPa 1.5 m/s 0.7 mm
12:00 6.0° 1006.3 hPa 1.6 m/s 0.6 mm
18:00 4.8° 1006.8 hPa 1.2 m/s 0.9 mm
 06:00     14:23    Daylength: 8:23 Wednesday 03 Nov
00:00 4.5° 1007.5 hPa 1.0 m/s 0.7 mm
06:00 4.2° 1007.7 hPa 0.6 m/s 0.4 mm
12:00 5.4° 1007.8 hPa 1.0 m/s 0.7 mm
18:00 4.4° 1007.6 hPa 1.2 m/s 0.9 mm
FMI Hirlam - 7.5 km EWN WRFDA - 12 km GFS - 25 km Basemap























































Updatetimes (Europe/Copenhagen) Resolution Length Steps
EWN WRFDA 21:30, 03:30, 09:30, 15:30 12 km 73h 1h
FMI Hirlam 19:00, 01:00, 07:00, 13:00 7.5 km 49h 1h
GFS 20:00, 02:00, 08:00, 14:00 25 km 237h 3h
30+ mm
25-30 mm
20-25 mm
15-20 mm
10-15 mm
6-10 mm
4-6 mm
2-4 mm
1-2 mm
0.5-1 mm
0.2-0.5 mm
0.1-0.2 mm
30+ mm
25-30 mm
20-25 mm
15-20 mm
10-15 mm
6-10 mm
4-6 mm
2-4 mm
1-2 mm
0.5-1 mm
0.2-0.5 mm
0.1-0.2 mm
Snowfall
Sleet
Hail
Freezing
30+ mm
25-30 mm
20-25 mm
15-20 mm
10-15 mm
6-10 mm
4-6 mm
2-4 mm
1-2 mm
0.5-1 mm
0.2-0.5 mm
0.1-0.2 mm
Snowfall
Sleet
Hail
Freezing
Thunder
50 mm
40 mm
30 mm
26 mm
22 mm
18 mm
14 mm
10 mm
9 mm
8 mm
7 mm
6 mm
5 mm
4.5 mm
4 mm
3.5 mm
3 mm
2.5 mm
2 mm
1.5 mm
1 mm
0.8 mm
0.6 mm
0.4 mm
0.2 mm
0.05 mm
35°
30°
25°
20°
15°
10°
-5°
-10°
-15°
-20°
-25°
-30°
-35°
33> m/s
29 m/s
25 m/s
21 m/s
17 m/s
14 m/s
11 m/s
8 m/s
5 m/s
3 m/s
0 m/s
2600 J/kg
2400 J/kg
2200 J/kg
2000 J/kg
1800 J/kg
1600 J/kg
1400 J/kg
1200 J/kg
1000 J/kg
800 J/kg
600 J/kg
400 J/kg
200 J/kg
70 dBZ
65 dBZ
60 dBZ
55 dBZ
50 dBZ
45 dBZ
40 dBZ
35 dBZ
30 dBZ
25 dBZ
20 dBZ
15 dBZ
10 dBZ
5 dBZ
-1 K
-2 K
-3 K
-4 K
-5 K
-6 K
-7 K
-8 K
-9 K
950 m²/s²
900 m²/s²
850 m²/s²
800 m²/s²
750 m²/s²
700 m²/s²
650 m²/s²
600 m²/s²
550 m²/s²
500 m²/s²
450 m²/s²
400 m²/s²
350 m²/s²
300 m²/s²
250 m²/s²
200 m²/s²
150 m²/s²
100 m²/s²
46 m/s
44 m/s
42 m/s
40 m/s
38 m/s
36 m/s
34 m/s
32 m/s
30 m/s
28 m/s
26 m/s
24 m/s
22 m/s
20 m/s
16 m/s
12 m/s
8 m/s
4 m/s
30 m/s
28 m/s
26 m/s
24 m/s
22 m/s
20 m/s
18 m/s
16 m/s
14 m/s
12 m/s
10 m/s
8 m/s
6 m/s
4 m/s
2 m/s
3.0
2.8
2.6
2.4
2.2
2.0
1.8
1.6
1.4
1.2
1.0
0.8
0.6
0.4
0.2
15
14
13
12
11
10
9
8
7
6
5
4
3
2
1
90%
80%
70%
60%
50%
40%
30%
20%
10%
42
40
38
36
34
32
30
28
26
24
22
20
18
16
14
12
90+ cm
80-90 cm
70-80 cm
60-70 cm
50-60 cm
40-50 cm
30-40 cm
20-30 cm
10-20 cm
1-10 cm
Snowfall
Sleet
Rain
>120 mm
115 mm
110 mm
105 mm
100 mm
95 mm
90 mm
85 mm
80 mm
75 mm
70 mm
65 mm
60 mm
55 mm
50 mm
45 mm
45 mm
40 mm
35 mm
30 mm
25 mm
20 mm
15 mm
10 mm
5 mm
0.1 mm
960 hPa
880 hPa
800 hPa
720 hPa
640 hPa
560 hPa
584 gpdm
568 gpdm
552 gpdm
536 gpdm
520 gpdm
504 gpdm
488 gpdm
Extremely severe Severe weather Lightning probability
15% 15% 5% 50% 15%

Day




Map






35°
30°
25°
20°
15°
10°
-5°
-10°